Dewpoint
53 53 53 53 53 53 54 54 54 55 57 58 59 60 60 60 60 57 52 52 53 55 56 49 47 47 46 52 53 51 42 39 38 35 34 35 31 34 35 35 37 36 34 39 47
53 53 53 53 53 53 53 54 54 55 55 56 57 58 58 60 54 53 56 58 58 56 51 48 47 45 42 49 51 48 43 42 40 38 35 35 33 36 38 38 37 37 38 38 45
54 54 54 53 53 52 53 52 53 53 55 54 55 57 58 57 50 47 57 59 60 57 54 52 50 46 43 43 48 48 45 43 42 40 39 37 37 38 37 38 39 38 38 41 40
53 54 54 53 52 52 53 53 51 52 54 54 54 56 58 53 40 50 53 56 56 55 54 52 49 44 42 44 45 46 47 46 44 44 42 38 38 37 37 37 40 39 40 40 40
55 53 54 54 53 53 53 53 52 50 52 53 54 55 52 47 45 51 53 52 50 51 52 50 48 45 39 40 42 44 43 45 44 43 41 40 38 37 38 39 39 39 39 40 40
56 54 54 55 54 54 54 54 53 52 51 52 54 56 50 42 43 43 47 45 44 50 50 49 47 45 42 38 38 40 42 43 45 44 41 38 38 39 39 39 38 38 39 39 38
58 56 56 56 54 54 55 54 54 53 52 51 52 51 48 41 41 43 44 45 44 43 40 43 47 45 44 40 41 42 39 38 38 44 43 42 37 37 39 39 38 38 38 38 33
58 57 56 56 56 55 54 53 54 55 53 52 51 50 43 45 46 44 43 42 41 41 41 41 41 41 43 45 41 40 41 37 38 41 43 40 37 38 39 38 38 38 37 34 37
58 58 56 56 57 56 54 53 52 54 55 53 50 47 41 46 44 44 43 41 40 40 40 38 40 40 42 40 38 39 35 37 38 41 42 41 38 38 39 38 37 36 35 32 38
58 58 57 57 57 56 54 51 53 53 54 51 47 42 42 37 42 43 44 42 40 39 39 40 38 36 39 38 30 31 34 36 38 38 40 40 40 38 38 38 37 36 33 33 38
58 57 57 57 57 55 52 49 45 44 48 42 42 38 36 41 40 41 41 41 39 38 35 38 35 32 34 38 36 34 34 35 37 38 38 38 38 39 38 37 36 35 32 34 38
57 57 58 56 56 55 51 46 45 45 40 45 44 42 40 41 38 39 41 38 37 35 36 35 33 34 35 34 38 35 35 35 36 39 38 38 38 38 37 36 36 36 35 37 39
57 57 57 56 55 53 49 46 48 45 40 40 44 43 42 42 39 40 39 37 35 34 34 32 31 33 33 33 34 34 34 34 33 37 39 38 37 37 37 36 35 36 35 38 39
56 56 56 55 50 49 48 50 49 49 35 35 38 41 42 43 39 41 41 37 35 33 34 33 33 31 34 33 32 31 32 31 32 35 34 38 35 34 35 33 33 32 34 37 39
55 56 56 52 47 45 49 50 50 48 22 35 37 42 42 40 39 39 42 41 39 36 35 34 33 31 30 31 34 31 33 33 33 35 37 36 36 34 32 32 33 33 35 37 39
55 56 55 50 50 51 50 49 46 33 20 34 38 36 39 39 38 38 38 40 40 39 38 36 37 37 32 31 32 34 33 34 35 35 32 35 37 33 32 32 32 33 36 37 39
56 56 54 50 45 50 49 43 32 25 32 34 34 36 33 34 36 36 36 36 33 30 28 34 35 36 38 35 36 34 32 26 26 28 27 35 35 35 31 28 32 31 36 37 40
56 56 54 48 51 49 47 38 26 27 31 37 36 34 34 34 35 34 35 33 35 33 32 26 24 34 35 33 31 33 31 25 20 22 25 36 34 30 36 29 31 35 36 38 42
55 54 52 51 50 49 41 30 26 29 35 36 37 35 34 33 33 32 32 31 31 33 29 29 29 35 34 34 32 31 30 31 32 33 30 32 29 26 29 31 35 35 37 39 42
52 51 50 51 50 47 38 32 32 37 39 38 34 35 31 31 31 30 30 31 31 33 33 33 28 31 34 38 35 35 34 30 32 26 28 27 24 24 28 29 34 35 36 39 41
50 46 51 52 50 43 33 34 33 36 39 37 36 35 34 33 30 31 31 32 32 32 34 36 33 32 36 36 34 35 35 33 34 29 29 25 25 27 29 29 34 35 36 39 41
48 41 51 51 40 40 36 36 38 38 40 39 39 38 36 34 32 30 32 33 34 36 34 37 36 30 33 39 39 38 35 35 29 32 33 25 23 28 29 30 33 35 37 39 40
45 45 51 49 35 36 38 36 38 37 39 38 38 38 36 33 33 29 29 33 37 36 36 38 33 31 33 38 41 38 38 37 38 38 32 25 23 32 30 30 31 36 37 39 40
45 39 45 46 44 38 37 36 37 39 39 39 39 39 38 35 35 32 27 34 37 36 41 39 37 33 33 36 37 35 39 41 38 34 33 28 28 30 30 31 33 36 37 39 40
45 41 41 37 39 39 39 38 37 35 39 40 37 39 36 34 33 30 32 33 36 38 40 41 35 38 38 36 37 37 38 38 38 38 32 28 29 31 31 32 33 37 38 39 39
42 42 42 39 39 39 39 38 38 38 38 37 37 37 38 35 32 24 32 34 35 36 35 39 36 37 37 37 36 36 37 38 38 37 36 35 33 30 33 34 33 37 38 38 39
46 46 43 41 38 38 38 38 37 39 39 40 39 39 38 37 37 35 36 36 36 36 32 35 36 37 31 35 35 32 36 37 37 36 36 34 34 31 33 33 33 36 38 38 39
Lifted_Index
9 9 9 10 10 10 10 10 10 10 9 8 7 6 5 5 5 5 5 5 5 5 5 6 6 6 4 2 0 0 1 2 2 2 2 2 2 3 3 3 3 3 3 3 3
8 8 9 9 10 10 10 10 10 10 9 9 8 7 6 6 6 5 5 5 4 4 5 6 6 6 5 3 1 1 1 2 2 2 1 2 2 3 3 3 3 3 3 3 3
7 8 8 9 10 10 10 10 10 10 10 9 8 8 7 7 7 6 5 4 4 4 5 5 6 6 5 4 2 2 2 1 1 1 1 1 2 3 3 2 2 3 3 3 3
7 7 8 8 9 10 10 10 10 10 10 9 9 8 8 8 7 7 6 5 5 4 4 5 5 6 5 4 3 2 2 2 1 1 1 2 2 2 3 3 3 3 3 2 2
6 7 7 8 8 9 9 9 10 10 10 9 9 9 8 8 8 8 7 6 6 5 5 5 5 6 6 5 4 3 3 2 2 1 1 2 2 2 2 2 3 3 3 2 2
6 6 7 7 8 8 8 8 9 9 9 9 9 9 8 8 8 9 8 8 7 7 6 6 6 6 6 6 5 4 4 3 3 2 2 2 2 2 2 2 3 3 3 3 3
5 6 6 7 7 7 7 8 8 8 9 9 9 9 8 8 9 10 9 8 8 8 7 7 6 6 6 6 6 5 5 4 3 2 2 2 2 3 2 2 2 3 3 3 3
4 5 6 6 7 7 7 8 8 8 8 9 9 9 9 9 10 10 9 9 8 8 8 8 7 7 6 6 6 6 5 5 4 3 2 2 3 3 2 2 2 2 3 3 4
4 4 5 6 6 7 7 8 8 8 8 8 9 9 9 9 9 9 9 8 8 8 8 8 8 8 7 6 6 5 5 5 4 3 2 2 2 2 2 2 2 2 3 3 4
3 4 4 5 6 7 8 8 8 8 8 8 9 9 9 9 9 9 8 8 8 8 8 8 8 8 7 6 5 4 4 4 3 2 2 2 2 2 2 2 2 2 3 3 4
3 3 4 5 6 7 8 8 8 8 8 9 9 8 8 8 8 8 8 8 8 8 8 8 8 7 6 5 4 4 4 3 3 2 1 1 2 2 2 1 2 2 3 3 4
4 3 4 4 5 6 8 8 8 8 9 9 8 8 8 8 8 8 8 8 8 7 7 7 7 6 5 4 4 4 4 4 3 2 1 1 1 2 2 2 1 2 2 3 3
4 4 4 4 6 7 7 8 8 8 8 9 8 8 7 7 7 7 7 7 7 6 6 6 6 5 4 3 3 4 4 4 3 2 1 1 1 2 2 2 1 2 2 3 3
4 4 4 5 6 7 7 8 8 7 7 8 8 8 7 7 7 7 6 6 6 5 4 4 4 4 4 3 3 3 4 3 3 2 1 1 1 2 2 2 2 2 2 3 3
3 4 4 6 6 7 7 7 7 6 5 6 8 7 7 7 6 6 5 5 4 4 3 3 3 3 3 3 3 3 3 2 2 2 1 1 1 2 2 2 2 2 3 3 3
2 3 4 5 6 6 7 7 6 5 4 6 7 6 6 6 6 5 5 4 3 2 2 2 2 2 2 2 2 2 2 2 1 1 1 1 1 1 2 2 1 2 2 3 3
1 1 3 4 5 6 7 6 5 4 5 6 6 6 5 5 5 4 4 3 2 1 1 1 1 1 1 1 1 1 1 1 1 1 1 1 1 1 1 1 1 1 2 3 3
0 1 2 4 5 6 6 5 4 4 5 6 6 5 5 4 4 4 3 3 2 2 1 1 1 1 1 1 1 1 1 1 1 0 0 0 0 1 1 1 1 1 2 3 3
-0 0 1 3 5 6 5 5 4 4 5 5 5 5 4 4 4 4 4 3 2 2 2 2 1 1 1 1 1 0 1 2 2 1 -0 -0 0 1 1 1 1 2 3 4 4
-0 0 1 3 4 5 5 4 4 5 5 5 5 4 4 4 4 4 4 4 3 3 2 2 2 2 2 2 1 1 1 2 2 1 -0 -0 0 1 1 1 2 3 3 4 5
0 1 1 2 4 4 5 4 5 5 5 5 5 4 4 4 5 5 4 4 3 2 2 3 3 2 2 1 1 1 1 2 3 2 0 0 0 1 1 2 2 3 4 4 5
0 1 1 2 3 4 4 4 5 5 5 5 5 4 4 5 5 5 5 4 3 2 2 3 3 2 1 0 0 1 2 3 3 1 0 0 1 1 2 3 3 3 4 4 5
1 1 2 2 3 4 4 4 4 5 5 5 5 4 4 4 4 4 4 4 3 2 3 3 2 1 1 1 1 1 2 3 2 0 -0 0 1 2 3 3 4 4 4 4 4
1 1 2 3 3 4 4 4 4 4 4 4 4 4 4 4 4 4 4 4 3 3 3 3 2 1 1 1 1 1 1 1 1 -0 -0 0 1 2 3 4 4 4 4 4 4
1 1 2 3 3 3 4 4 4 4 4 4 4 4 4 4 4 4 3 3 2 2 3 3 2 1 1 1 1 1 0 -0 -0 -0 -0 0 1 2 3 3 3 3 3 4 4
2 2 2 3 3 3 4 4 4 4 4 4 3 3 4 4 4 4 3 2 2 2 3 3 2 1 1 1 1 1 0 -0 -0 -0 -0 -0 0 1 2 2 2 2 3 3 4
2 2 2 2 2 3 3 4 4 5 4 4 4 3 4 5 5 4 3 2 2 2 3 2 2 1 1 1 0 0 0 0 0 0 -0 -0 0 1 2 2 2 2 3 3 3